| time (UTC) | temp C | wind direction | speed KPH | gust KPH | rain 1hr cm | rain 24hr cm | rain mn cm | humidity % | barometer mb |
| 20260503030004 | 10 | 188 | 8.0 | 11.3 | 0.00 | 0.00 | 0.00 | 54 | 1009.0 |
| 20260503025004 | 10 | 196 | 8.0 | 14.5 | 0.00 | 0.00 | 0.00 | 55 | 1009.0 |
| 20260503023004 | 10 | 175 | 8.0 | 11.3 | 0.00 | 0.00 | 0.00 | 53 | 1009.0 |
| 20260503022004 | 10 | 172 | 8.0 | 12.9 | 0.00 | 0.00 | 0.00 | 53 | 1009.0 |
| 20260503021004 | 10 | 181 | 8.0 | 11.3 | 0.00 | 0.00 | 0.00 | 52 | 1009.0 |
| 20260503020004 | 11 | 163 | 9.7 | 12.9 | 0.00 | 0.00 | 0.00 | 51 | 1009.1 |
| 20260503015004 | 11 | 177 | 8.0 | 12.9 | 0.00 | 0.00 | 0.00 | 50 | 1009.1 |
| 20260503013004 | 11 | 168 | 8.0 | 12.9 | 0.00 | 0.00 | 0.00 | 49 | 1009.1 |
| 20260503012004 | 12 | 183 | 8.0 | 12.9 | 0.00 | 0.00 | 0.00 | 49 | 1009.1 |
| 20260503005003 | 12 | 208 | 9.7 | 19.3 | 0.00 | 0.00 | 0.00 | 47 | 1009.3 |
| 20260503004003 | 13 | 224 | 9.7 | 19.3 | 0.00 | 0.00 | 0.00 | 46 | 1009.3 |
| 20260503003003 | 13 | 191 | 8.0 | 20.9 | 0.00 | 0.00 | 0.00 | 48 | 1009.8 |
| 20260503002003 | 13 | 205 | 6.4 | 20.9 | 0.00 | 0.00 | 0.00 | 50 | 1009.8 |
| 20260503001003 | 13 | 213 | 8.0 | 19.3 | 0.00 | 0.00 | 0.00 | 48 | 1009.8 |
| 20260503000003 | 13 | 237 | 8.0 | 16.1 | 0.00 | 0.00 | 0.00 | 50 | 1009.8 |
| 20260502235003 | 13 | 229 | 19.3 | 25.7 | 0.00 | 0.00 | 0.00 | 48 | 1010.7 |
| 20260502234003 | 13 | 242 | 16.1 | 29.0 | 0.00 | 0.00 | 0.00 | 47 | 1010.7 |
| 20260502233003 | 13 | 224 | 25.7 | 33.8 | 0.00 | 0.00 | 0.00 | 47 | 1010.7 |
| 20260502231003 | 14 | 214 | 17.7 | 29.0 | 0.00 | 0.00 | 0.00 | 46 | 1010.7 |
| 20260502230003 | 15 | 225 | 19.3 | 29.0 | 0.00 | 0.00 | 0.00 | 42 | 1010.7 |
| 20260502225003 | 14 | 227 | 16.1 | 32.2 | 0.00 | 0.00 | 0.00 | 45 | 1010.7 |
| 20260502224003 | 15 | 248 | 22.5 | 32.2 | 0.00 | 0.00 | 0.00 | 43 | 1010.7 |
| 20260502223003 | 15 | 223 | 19.3 | 29.0 | 0.00 | 0.00 | 0.00 | 37 | 1010.7 |
| 20260502222003 | 15 | 220 | 16.1 | 32.2 | 0.00 | 0.00 | 0.00 | 41 | 1010.7 |
| 20260502221006 | 15 | 199 | 11.3 | 25.7 | 0.00 | 0.00 | 0.00 | 38 | 1010.7 |
| 20260502220002 | 14 | 242 | 11.3 | 20.9 | 0.00 | 0.00 | 0.00 | 42 | 1010.7 |
| 20260502215003 | 14 | 267 | 11.3 | 19.3 | 0.00 | 0.00 | 0.00 | 43 | 1010.7 |
| 20260502214003 | 14 | 209 | 16.1 | 29.0 | 0.00 | 0.00 | 0.00 | 37 | 1011.4 |
| 20260502213003 | 14 | 229 | 16.1 | 22.5 | 0.00 | 0.00 | 0.00 | 39 | 1011.4 |
| 20260502212003 | 14 | 243 | 20.9 | 29.0 | 0.00 | 0.00 | 0.00 | 39 | 1011.4 |
| 20260502211004 | 15 | 237 | 16.1 | 27.4 | 0.00 | 0.00 | 0.00 | 36 | 1011.4 |
| 20260502210002 | 15 | 224 | 14.5 | 29.0 | 0.00 | 0.00 | 0.00 | 37 | 1011.4 |
| 20260502205003 | 15 | 218 | 14.5 | 22.5 | 0.00 | 0.00 | 0.00 | 33 | 1011.4 |
| 20260502203003 | 14 | 217 | 11.3 | 22.5 | 0.00 | 0.00 | 0.00 | 36 | 1011.9 |
| 20260502201003 | 15 | 232 | 16.1 | 32.2 | 0.00 | 0.00 | 0.00 | 37 | 1011.9 |
| 20260502194003 | 14 | 240 | 11.3 | 16.1 | 0.00 | 0.00 | 0.00 | 35 | 1012.7 |
| 20260502193003 | 14 | 229 | 14.5 | 27.4 | 0.00 | 0.00 | 0.00 | 39 | 1012.7 |
| 20260502192003 | 14 | 241 | 16.1 | 24.1 | 0.00 | 0.00 | 0.00 | 34 | 1012.7 |
| 20260502190003 | 13 | 237 | 4.8 | 20.9 | 0.00 | 0.00 | 0.00 | 35 | 1013.5 |
| 20260502185003 | 13 | 248 | 19.3 | 25.7 | 0.00 | 0.00 | 0.00 | 35 | 1013.5 |
| 20260502182003 | 13 | 260 | 9.7 | 16.1 | 0.00 | 0.00 | 0.00 | 35 | 1014.7 |
| 20260502181003 | 12 | 358 | 14.5 | 22.5 | 0.00 | 0.00 | 0.00 | 33 | 1014.7 |
| 20260502163003 | 11 | 262 | 8.0 | 20.9 | 0.00 | 0.00 | 0.00 | 38 | 1015.4 |
| 20260502162003 | 11 | 235 | 9.7 | 19.3 | 0.00 | 0.00 | 0.00 | 42 | 1015.8 |
| 20260502161003 | 11 | 259 | 16.1 | 27.4 | 0.00 | 0.00 | 0.00 | 42 | 1015.8 |
| 20260502151003 | 8 | 265 | 8.0 | 14.5 | 0.00 | 0.00 | 0.00 | 48 | 1016.0 |
| 20260502123003 | -2 | 182 | 3.2 | 8.0 | 0.00 | 0.00 | 0.00 | 90 | 1016.9 |
| 20260502121003 | -3 | 171 | 3.2 | 8.0 | 0.00 | 0.00 | 0.00 | 90 | 1016.9 |
| 20260502114003 | -3 | 171 | 4.8 | 4.8 | 0.00 | 0.00 | 0.00 | 89 | 1016.9 |
| 20260502113003 | -3 | 171 | 3.2 | 8.0 | 0.00 | 0.00 | 0.00 | 89 | 1016.9 |
| 20260502112003 | -3 | 171 | 4.8 | 4.8 | 0.00 | 0.00 | 0.00 | 89 | 1016.9 |
| 20260502110003 | -3 | 171 | 6.4 | 8.0 | 0.00 | 0.00 | 0.00 | 88 | 1016.9 |
| 20260502104003 | -3 | 166 | 4.8 | 8.0 | 0.00 | 0.00 | 0.00 | 89 | 1016.9 |
| 20260502101008 | -3 | 185 | 6.4 | 11.3 | 0.00 | 0.00 | 0.00 | 88 | 1016.9 |
| 20260502091003 | -3 | 198 | 3.2 | 4.8 | 0.00 | 0.00 | 0.00 | 89 | 1017.1 |
| 20260502071003 | -2 | 187 | 3.2 | 4.8 | 0.00 | 0.00 | 0.00 | 88 | 1017.7 |
| 20260502070002 | -2 | 187 | 3.2 | 4.8 | 0.00 | 0.00 | 0.00 | 87 | 1017.7 |
| 20260502065003 | -2 | 187 | 3.2 | 4.8 | 0.00 | 0.00 | 0.00 | 87 | 1017.7 |
| 20260502064003 | -2 | 187 | 3.2 | 4.8 | 0.00 | 0.00 | 0.00 | 87 | 1017.7 |
| 20260502062003 | -2 | 187 | 4.8 | 4.8 | 0.00 | 0.00 | 0.00 | 87 | 1017.7 |
| 20260502061003 | -2 | 179 | 4.8 | 4.8 | 0.00 | 0.00 | 0.00 | 86 | 1017.7 |
| 20260502060003 | -2 | 178 | 3.2 | 4.8 | 0.00 | 0.00 | 0.00 | 86 | 1017.7 |
| 20260502055003 | -1 | 184 | 3.2 | 4.8 | 0.00 | 0.00 | 0.00 | 85 | 1017.7 |
| 20260502054003 | -1 | 184 | 1.6 | 4.8 | 0.00 | 0.00 | 0.00 | 85 | 1017.7 |
| 20260502053003 | -1 | 184 | 3.2 | 4.8 | 0.00 | 0.00 | 0.00 | 84 | 1017.7 |
| 20260502052003 | -1 | 184 | 4.8 | 4.8 | 0.00 | 0.00 | 0.00 | 84 | 1017.7 |
| 20260502051003 | -1 | 181 | 4.8 | 8.0 | 0.00 | 0.00 | 0.00 | 83 | 1017.7 |
| 20260502050003 | -1 | 177 | 4.8 | 8.0 | 0.00 | 0.00 | 0.00 | 82 | 1017.7 |
| 20260502045003 | -1 | 177 | 4.8 | 8.0 | 0.00 | 0.00 | 0.00 | 82 | 1017.7 |
| 20260502044003 | -1 | 190 | 3.2 | 4.8 | 0.00 | 0.00 | 0.00 | 81 | 1017.7 |
| 20260502042003 | -1 | 203 | 3.2 | 4.8 | 0.00 | 0.00 | 0.00 | 79 | 1017.7 |
| 20260502041003 | -1 | 213 | 3.2 | 4.8 | 0.00 | 0.00 | 0.00 | 77 | 1017.7 |
| 20260502040002 | -1 | 186 | 3.2 | 4.8 | 0.00 | 0.00 | 0.00 | 76 | 1017.7 |
| 20260502035003 | -1 | 78 | 0.0 | 0.0 | 0.00 | 0.00 | 0.00 | 75 | 1017.7 |
| 20260502034003 | 0 | 78 | 0.0 | 0.0 | 0.00 | 0.00 | 0.00 | 72 | 1017.7 |
| 20260502033003 | 0 | 78 | 0.0 | 0.0 | 0.00 | 0.00 | 0.00 | 71 | 1017.6 |